STARLINK-37244, 68529

Orbit data source: Space-Track

STARLINK-37244, 68529 is a payload satellite owned by SpaceX/Seattle (US) in LEO that was launched on Mon, 30 Mar 2026 UTC via an FALCON 9 launch vehicle from the Air Force Eastern Test Range (AFETR). Payload-class satellites include a variety of spacecraft equipped with specific instruments for various scientific and technological missions. These include communications satellites like Starlink; space stations such as the ISS; scientific satellites like the Hubble; Earth observation satellites from companies like Planet Labs, Umbra, and HawkEye 360; GPS; miniature CubeSats for education and research; and military/defense satellites.

Loading next visibility...
Identifier
68529, 2026-068X
Orbit
LEO
Country
Flag of USUS
Related business
Manufacturer
SpaceX/Seattle
Mission
Operational spacecraft
Bus & Motor
STARLINK V2MO, Unknown motor
Mass
575 kg wet, ~530 kg dry
Launch date (UTC)
2026-03-30 (3 months ago)
Launch vehicle
FALCON 9
Launch site
Air Force Eastern Test Range (AFETR)
Object type
Payload
Rocket body
Debris
Shape & HBR
Unknown shape, 3.0 m
Radar Cross Section
Large (>1 m²)

Expand to show TLE details & history
Last TLE update: 20 hours ago

TLE from 20 hours ago
0 STARLINK-37244
1 68529U 26068X   26170.99629389  .00022456  00000-0  67346-3 0  9991
2 68529  53.1584  12.2910 0001016 102.5116 257.6000 15.34414511 12638
Epoch: 2026-06-19T23:54Z
TLE epoch observation values (Epoch: 2026-06-19T23:54:39.792Z)
Latitude
-0.00002°
Longitude
105.40792°
Altitude
463.711 km
Speed
7.636 km/s
True Right ascension
00h 49m 09s
True Declination
0° 00' 00"
Sunlit
Object was in daylight at epoch
Visualization orbit readout
Latitude
Unknown
Longitude
Unknown
Altitude
Unknown
Speed
Unknown
Apparent Right ascension
Unknown
Apparent Declination
Unknown
Sunlit
N/A
Visualization observer readout
Local Sidereal Time
07:19:37
Azimuth
Unknown
Elevation
Unknown
Doppler factor
Unknown
Orbital elements
Apogee altitude
463.612 km
Perigee altitude
462.222 km
Semi-major axis
6,841.054 km
Eccentricity
0.0001
Inclination
53.1584°
RAAN
12.291°
Arg. of periapsis
102.5116°
True anomaly
257.58863°
Mean anomaly
257.6°
Eccentric anomaly
257.59431°
Mean motion
3.83582 °/min
Orbital period
93.85 mins
BSTAR
0.00067346
Loading maneuver chart data...
Computing Atmospheric mass density...
Loading historical data...
Loading historical data...
Loading historical data...
Loading historical data...
Loading historical data...
Loading historical data...
Loading historical data...

Documentation

Showing up to 5 results
|